Regional Weather Roundup
Issued by NWS Albany, NY

Home | Current Version | Previous Version | Text Only | Print | Product List | Glossary On
Versions: 1 2 3 4 5 6 7 8 9 10 11 12 13 14 15 16 17 18 19 20 21 22 23 24 25 26 27 28 29 30 31 32 33 34 35 36 37 38 39 40 41 42 43 44 45 46 47 48 49 50
394
ASUS41 KALY 150310
RWRALY

NEW YORK STATE HOURLY WEATHER ROUNDUP
NATIONAL WEATHER SERVICE ALBANY NY
1000 PM EST THU DEC 14 2017

NOTE: "FAIR" INDICATES FEW OR NO CLOUDS BELOW 12,000 FEET WITH NO
SIGNIFICANT WEATHER AND/OR NO OBSTRUCTIONS TO VISIBILITY.

NYZ032-033-038>043-046>054-057>066-NYZ062>081-082-084-150400-
EAST


CITY           SKY/WX    TMP DP  RH WIND       PRES   REMARKS
ALBANY         MOCLDY    16   4  59 SW5       30.04R WCI   9
GLENS FALLS    CLEAR      3   0  87 S5        30.00R WCI  -6
POUGHKEEPSIE   CLEAR     17   0  47 W3        30.06R
NEWBURGH       CLEAR     12   5  73 W6        30.05R WCI   3
MONTGOMERY     CLOUDY    13   3  64 VRB5      30.05R WCI   5
WHITE PLAINS   CLEAR     20   5  52 W10       30.05R WCI   9
ISLIP          PTCLDY    23   5  46 NW16      30.06R WCI  10
NEW YORK CITY  PTCLDY    26   8  46 NW14      30.09R WCI  14
CENTRAL PARK   PTCLDY    24   7  48 NW6       30.10R WCI  17
$$

NYZ005>009-017-018-044>046-055-056-150400-
CENTRAL


CITY           SKY/WX    TMP DP  RH WIND       PRES   REMARKS
FULTON         LGT SNOW  17  12  80 SW8       30.02R WCI   7
SYRACUSE       CLOUDY    17  10  74 W13       30.02R WCI   4
ROME           LGT SNOW  15  13  91 CALM      30.03R FOG
ELMIRA         CLEAR      5   0  79 CALM      30.03R
BINGHAMTON     CLEAR      8   0  69 W6        29.96R WCI  -2
MONTICELLO     CLOUDY     7   2  80 W5        29.99R WCI  -2
$$

NYZ026>034-041>043-087-150400-
NORTH


CITY           SKY/WX    TMP DP  RH WIND       PRES   REMARKS
WATERTOWN      CLOUDY    15  10  80 NW7       30.02R WCI   5
FORT DRUM      NOT AVBL
OGDENSBURG     FAIR       1  -3  84 S5        29.99R WCI  -9
MASSENA        CLEAR      4  -1  80 W6        30.00R WCI  -7
SARANAC LAKE   CLEAR      2  -2  83 W6        29.84R WCI  -9
PLATTSBURGH    CLEAR      8  -3  61 VRB3      29.97R
$$

NYZ001>004-010>016-019>021-085-150400-
WEST


CITY           SKY/WX    TMP DP  RH WIND       PRES   REMARKS
NIAGARA FALLS  CLEAR     16   7  67 W10       30.03R WCI   4
BUFFALO        PTCLDY    17  10  74 W7        30.02S WCI   8
DUNKIRK        CLOUDY    22  15  75 S9        30.03S WCI  12
JAMESTOWN      FLURRIES  16  12  84 SW8       29.97S WCI   5
WELLSVILLE     CLOUDY    16   9  74 W7        29.94S WCI   6
ROCHESTER      FLURRIES  16   9  74 SW7       30.03R WCI   6
PENN YAN       CLEAR     14   6  70 SW8       30.01S WCI   3
$$

             KEY
       WCI = WIND CHILL INDEX
       VSB = VISIBILITY
       HX  = HEAT INDEX
$$




USA.gov is the U.S. government's official web portal to all federal, state and local government web resources and services.